Location: Gwatt
(46.7204°N, 7.6223°E)
Time: 17:03:05
(UTC+00:00)

Cosmos 2034 Rocket - Pass Details

Date: 18 September 2020
Orbit: 957 x 1002 km, 82.9° (Epoch: 28 October)

Event Time Altitude Azimuth Distance (km) Brightness Sun altitude
Rises 18:53:32 0° 171° (S) 3,712 6.8 -14.1°
Reaches altitude 10° 18:56:06 10° 167° (SSE) 2,766 6.1 -14.5°
Maximum altitude 19:02:17 55° 92° (E) 1,188 4.1 -15.5°
Drops below altitude 10° 19:08:27 10° 16° (NNE) 2,771 6.4 -16.5°
Sets 19:11:01 0° 13° (NNE) 3,719 7.2 -17.0°
